Simultaneous Nadir Overpasses (SNOs) Predictions

Prediction of SNOs between TERRA and METOP-C Satellite Orbit:

Table of predicted SNOs for the next 14.0 days since TLE Epoch: 8/29/2020
Index Date (TERRA) Time (TERRA) Lat,Lon (TERRA) SZA (TERRA ) Date (METOP-C) Time (METOP-C) Lat,Lon (METOP-C) SZA (METOP-C ) Distance(km) Time Diff (sec)
1 08/29/2020 15:07:31 -81.30,-179.60 104.93 08/29/2020 15:06:42 -81.31,-179.43 104.92 2.99 49
2 08/29/2020 15:56:57 81.31, -11.80 75.12 08/29/2020 15:57:23 81.31, -11.98 75.11 3.12 26
3 09/01/2020 10:41:46 -81.31,-113.10 103.88 09/01/2020 10:41:03 -81.31,-113.03 103.89 1.29 43
4 09/01/2020 11:31:12 81.31, 54.67 76.16 09/01/2020 11:31:43 81.32, 54.75 76.18 1.40 31
5 09/04/2020 06:16:00 -81.31, -46.63 102.82 09/04/2020 06:15:23 -81.31, -46.64 102.84 0.56 37
6 09/04/2020 07:05:26 81.31, 121.12 77.21 09/04/2020 07:06:03 81.32, 121.08 77.23 0.85 37
7 09/07/2020 01:50:15 -81.31, 19.82 101.76 09/07/2020 01:49:44 -81.31, 19.75 101.78 1.24 31
8 09/07/2020 02:39:41 81.31,-172.47 78.27 09/07/2020 02:40:24 81.32,-172.60 78.28 2.32 43
9 09/09/2020 21:24:30 -81.31, 86.23 100.68 09/09/2020 21:24:05 -81.31, 86.13 100.70 1.77 25



Historial Predications of SNOs between TERRA and METOP-C
